TimePST,TemperatureF,Dew PointF,Humidity,Sea Level PressureIn,VisibilityMPH,Wind Direction,Wind SpeedMPH,Gust SpeedMPH,PrecipitationIn,Events,Conditions,WindDirDegrees,DateUTC
12:53 AM,30.0,26.1,85,29.86,10.0,Calm,Calm,-,N/A,,Overcast,0,2014-03-02 08:53:00
1:53 AM,28.9,24.1,82,29.87,10.0,Calm,Calm,-,N/A,,Scattered Clouds,0,2014-03-02 09:53:00
2:33 AM,27.0,23.0,85,29.88,2.5,Calm,Calm,-,N/A,,Clear,0,2014-03-02 10:33:00
2:42 AM,28.0,23.0,81,29.88,5.0,Calm,Calm,-,N/A,,Haze,0,2014-03-02 10:42:00
2:53 AM,28.0,23.0,81,29.86,10.0,Calm,Calm,-,N/A,,Clear,0,2014-03-02 10:53:00
3:53 AM,27.0,23.0,85,29.86,10.0,Calm,Calm,-,N/A,,Clear,0,2014-03-02 11:53:00
4:53 AM,27.0,23.0,85,29.87,10.0,Calm,Calm,-,N/A,,Clear,0,2014-03-02 12:53:00
5:53 AM,28.0,23.0,81,29.90,10.0,Calm,Calm,-,N/A,,Clear,0,2014-03-02 13:53:00
6:53 AM,28.0,23.0,81,29.93,10.0,Calm,Calm,-,N/A,,Clear,0,2014-03-02 14:53:00
7:53 AM,30.0,25.0,82,29.95,10.0,Calm,Calm,-,N/A,,Clear,0,2014-03-02 15:53:00
8:53 AM,39.0,27.0,62,29.94,10.0,SSW,9.2,-,N/A,,Mostly Cloudy,200,2014-03-02 16:53:00
9:53 AM,39.9,27.0,60,29.94,10.0,SW,10.4,17.3,N/A,,Overcast,220,2014-03-02 17:53:00
10:53 AM,43.0,28.0,56,29.96,10.0,SSW,11.5,-,N/A,,Overcast,200,2014-03-02 18:53:00
11:53 AM,43.0,28.0,56,29.95,10.0,SSW,8.1,-,N/A,,Mostly Cloudy,200,2014-03-02 19:53:00
12:53 PM,45.0,28.9,53,29.94,10.0,South,15.0,23.0,N/A,,Overcast,190,2014-03-02 20:53:00
1:53 PM,44.1,32.0,63,29.96,10.0,South,12.7,19.6,0.00,,Overcast,190,2014-03-02 21:53:00
2:53 PM,43.0,33.1,68,29.99,10.0,South,15.0,25.3,0.00,Rain,Light Rain,190,2014-03-02 22:53:00
3:36 PM,42.1,34.0,73,30.03,10.0,South,10.4,-,0.00,Rain,Light Rain,180,2014-03-02 23:36:00
3:53 PM,42.1,33.1,70,30.01,10.0,South,11.5,-,0.00,Rain,Light Rain,180,2014-03-02 23:53:00
4:53 PM,41.0,33.1,73,30.04,10.0,SSW,11.5,-,0.00,Rain,Light Rain,200,2014-03-03 00:53:00
5:53 PM,39.9,32.0,73,30.06,10.0,SSW,5.8,-,0.00,,Overcast,200,2014-03-03 01:53:00
6:30 PM,39.9,32.0,73,30.08,10.0,SSW,6.9,17.3,N/A,,Overcast,200,2014-03-03 02:30:00
6:53 PM,39.9,32.0,73,30.08,10.0,South,9.2,-,N/A,,Overcast,190,2014-03-03 02:53:00
7:53 PM,39.9,30.9,70,30.08,10.0,SSW,9.2,-,0.00,,Overcast,200,2014-03-03 03:53:00
8:00 PM,39.9,30.9,70,30.10,10.0,South,9.2,-,N/A,,Overcast,190,2014-03-03 04:00:00
8:53 PM,39.9,30.9,70,30.07,10.0,South,8.1,-,N/A,,Overcast,180,2014-03-03 04:53:00
9:29 PM,39.0,30.9,73,30.11,10.0,Variable,3.5,-,N/A,,Overcast,0,2014-03-03 05:29:00
9:53 PM,39.9,30.0,68,30.08,10.0,Variable,5.8,-,N/A,,Overcast,0,2014-03-03 05:53:00
10:02 PM,39.9,30.0,68,30.12,10.0,Variable,3.5,-,N/A,,Mostly Cloudy,0,2014-03-03 06:02:00
10:53 PM,35.1,28.9,78,30.08,10.0,Calm,Calm,-,N/A,,Mostly Cloudy,0,2014-03-03 06:53:00
11:53 PM,34.0,28.9,82,30.09,10.0,Calm,Calm,-,N/A,,Partly Cloudy,0,2014-03-03 07:53:00